DAL2490 KATL-KOKC

Flight info

Callsign DAL2490
Flight time 2h 4m
Altitude 34000
Route NASSA2 YAALL J14 DWINE RIFFL3
Aircraft A320/M-SDE3FGHIRWY/LB1

Departure

Time 2026-05-08 12:59
Airport Hartsfield Jackson Atlanta International Airport (KATL)

Arrival

Time 2026-05-08 15:03
Airport OKC Will Rogers World Airport (KOKC)
Time Latitude Longitude Altitude Speed Heading
2026-05-08 12:33 33.63998 -84.43545 1006 ft 0 kts 271°
2026-05-08 12:47 33.63998 -84.43536 1006 ft 2 kts 271°
2026-05-08 12:47 33.63998 -84.43516 1006 ft 2 kts 271°
2026-05-08 12:48 33.63998 -84.43495 1006 ft 3 kts 287°
2026-05-08 12:48 33.63990 -84.43476 1006 ft 3 kts 312°
2026-05-08 12:48 33.63976 -84.43463 1006 ft 3 kts 339°
2026-05-08 12:48 33.63961 -84.43459 1006 ft 0 kts
2026-05-08 12:51 33.63964 -84.43459 1006 ft 3 kts
2026-05-08 12:52 33.64013 -84.43459 1006 ft 10 kts 360°
2026-05-08 12:52 33.64213 -84.43459 1006 ft 17 kts
2026-05-08 12:52 33.64334 -84.43458 1006 ft 18 kts 360°
2026-05-08 12:53 33.64443 -84.43443 1006 ft 14 kts 36°
2026-05-08 12:53 33.64460 -84.43339 1006 ft 12 kts 90°
2026-05-08 12:53 33.64460 -84.43245 1007 ft 12 kts 90°
2026-05-08 12:53 33.64459 -84.43123 1007 ft 14 kts 90°
2026-05-08 12:54 33.64460 -84.43012 1006 ft 12 kts 90°
2026-05-08 12:54 33.64460 -84.42884 1006 ft 19 kts 90°
2026-05-08 12:54 33.64466 -84.42721 1006 ft 20 kts 84°
2026-05-08 12:54 33.64469 -84.42548 1006 ft 21 kts 90°
2026-05-08 12:55 33.64469 -84.42365 1006 ft 23 kts 90°
2026-05-08 12:55 33.64489 -84.42221 1006 ft 16 kts 60°
2026-05-08 12:55 33.64541 -84.42097 1006 ft 17 kts 80°
2026-05-08 12:55 33.64542 -84.41936 1006 ft 22 kts 90°
2026-05-08 12:56 33.64542 -84.41755 1007 ft 18 kts 89°
2026-05-08 12:56 33.64543 -84.41622 1007 ft 15 kts 90°
2026-05-08 12:56 33.64542 -84.41503 1007 ft 13 kts 90°
2026-05-08 12:56 33.64543 -84.41398 1007 ft 14 kts 90°
2026-05-08 12:57 33.64543 -84.41252 1007 ft 19 kts 89°
2026-05-08 12:57 33.64543 -84.41091 1007 ft 20 kts 90°
2026-05-08 12:57 33.64543 -84.40920 1006 ft 21 kts 90°
2026-05-08 12:57 33.64566 -84.40771 1006 ft 17 kts 71°
2026-05-08 12:58 33.64570 -84.40625 1005 ft 14 kts 89°
2026-05-08 12:58 33.64597 -84.40572 1005 ft 7 kts 23°
2026-05-08 12:58 33.64667 -84.40577 1004 ft 12 kts 327°
2026-05-08 12:58 33.64680 -84.40679 1004 ft 18 kts 270°
2026-05-08 12:59 33.64680 -84.41083 1007 ft 84 kts 270°
2026-05-08 12:59 33.64680 -84.42045 1005 ft 144 kts 270°
2026-05-08 12:59 33.64671 -84.43409 1231 ft 171 kts 271°
2026-05-08 12:59 33.64658 -84.44836 1953 ft 171 kts 271°
2026-05-08 13:00 33.64803 -84.46242 2685 ft 170 kts 284°
2026-05-08 13:00 33.65070 -84.47687 3169 ft 188 kts 284°
2026-05-08 13:00 33.65369 -84.49309 3528 ft 211 kts 284°
2026-05-08 13:00 33.65702 -84.51121 3892 ft 234 kts 284°
2026-05-08 13:01 33.66067 -84.53123 4312 ft 257 kts 283°
2026-05-08 13:01 33.66454 -84.55256 5087 ft 264 kts 283°
2026-05-08 13:01 33.66844 -84.57411 6003 ft 264 kts 283°
2026-05-08 13:01 33.67230 -84.59564 6982 ft 263 kts 282°
2026-05-08 13:02 33.67600 -84.61718 7867 ft 263 kts 282°
2026-05-08 13:02 33.67963 -84.63872 8755 ft 264 kts 282°
2026-05-08 13:02 33.68326 -84.66033 9650 ft 264 kts 282°
2026-05-08 13:02 33.68688 -84.68194 10470 ft 265 kts 281°
2026-05-08 13:03 33.69063 -84.70445 10843 ft 284 kts 281°
2026-05-08 13:03 33.69462 -84.72837 11213 ft 300 kts 281°
2026-05-08 13:03 33.69870 -84.75349 11688 ft 311 kts 278°
2026-05-08 13:03 33.69985 -84.77963 12387 ft 315 kts 271°
2026-05-08 13:04 33.69980 -84.80602 13185 ft 316 kts 271°
2026-05-08 13:04 33.69975 -84.83246 13975 ft 317 kts 271°
2026-05-08 13:04 33.69971 -84.85896 14662 ft 318 kts 271°
2026-05-08 13:04 33.69969 -84.88556 15331 ft 319 kts 271°
2026-05-08 13:05 33.69967 -84.91225 16007 ft 320 kts 271°
2026-05-08 13:05 33.69965 -84.93905 16671 ft 322 kts 271°
2026-05-08 13:05 33.69959 -84.96598 17313 ft 324 kts 270°
2026-05-08 13:05 33.69949 -84.99311 17953 ft 326 kts 270°
2026-05-08 13:06 33.69939 -85.02037 18576 ft 328 kts 270°
2026-05-08 13:06 33.69930 -85.04782 19132 ft 329 kts 270°
2026-05-08 13:06 33.69922 -85.07536 19694 ft 331 kts 270°
2026-05-08 13:06 33.69912 -85.10305 20256 ft 333 kts 270°
2026-05-08 13:07 33.69900 -85.13089 20826 ft 334 kts 270°
2026-05-08 13:07 33.69885 -85.15883 21392 ft 336 kts 270°
2026-05-08 13:07 33.69871 -85.18690 21936 ft 337 kts 270°
2026-05-08 13:07 33.69858 -85.21513 22476 ft 339 kts 270°
2026-05-08 13:08 33.69845 -85.24350 22984 ft 341 kts 269°
2026-05-08 13:08 33.69822 -85.27209 23485 ft 343 kts 269°
2026-05-08 13:08 33.69792 -85.30077 23927 ft 345 kts 269°
2026-05-08 13:08 33.69759 -85.32961 24329 ft 346 kts 269°
2026-05-08 13:09 33.69725 -85.35855 24729 ft 347 kts 269°
2026-05-08 13:09 33.69689 -85.38759 25112 ft 349 kts 269°
2026-05-08 13:09 33.69654 -85.41678 25482 ft 350 kts 269°
2026-05-08 13:09 33.69618 -85.44605 25852 ft 351 kts 269°
2026-05-08 13:10 33.69581 -85.47539 26219 ft 352 kts 269°
2026-05-08 13:10 33.69544 -85.50488 26581 ft 354 kts 269°
2026-05-08 13:10 33.69509 -85.53407 26930 ft 355 kts 269°
2026-05-08 13:10 33.69472 -85.56417 27295 ft 356 kts 269°
2026-05-08 13:11 33.69433 -85.59398 27636 ft 358 kts 269°
2026-05-08 13:11 33.69392 -85.62387 27975 ft 359 kts 269°
2026-05-08 13:11 33.69350 -85.65388 28323 ft 360 kts 269°
2026-05-08 13:11 33.69308 -85.68399 28661 ft 362 kts 269°
2026-05-08 13:12 33.69266 -85.71384 28965 ft 363 kts 269°
2026-05-08 13:12 33.69223 -85.74417 29274 ft 364 kts 269°
2026-05-08 13:12 33.69178 -85.77464 29576 ft 366 kts 269°
2026-05-08 13:12 33.69132 -85.80519 29859 ft 367 kts 269°
2026-05-08 13:13 33.69086 -85.83589 30139 ft 368 kts 269°
2026-05-08 13:13 33.69038 -85.86665 30372 ft 369 kts 269°
2026-05-08 13:13 33.68988 -85.89752 30605 ft 370 kts 269°
2026-05-08 13:13 33.68938 -85.92831 30936 ft 367 kts 269°
2026-05-08 13:14 33.68889 -85.95887 31281 ft 365 kts 269°
2026-05-08 13:14 33.68839 -85.98925 31617 ft 362 kts 269°
2026-05-08 13:14 33.68790 -86.01938 31961 ft 360 kts 268°
2026-05-08 13:14 33.68806 -86.04934 32302 ft 358 kts 273°
2026-05-08 13:15 33.68962 -86.06903 32537 ft 357 kts 274°
2026-05-08 13:15 33.69200 -86.09852 32895 ft 354 kts 273°
2026-05-08 13:15 33.69433 -86.12786 33253 ft 352 kts 273°
2026-05-08 13:15 33.69665 -86.15696 33612 ft 349 kts 273°
2026-05-08 13:16 33.69893 -86.18586 33974 ft 346 kts 273°
2026-05-08 13:16 33.70117 -86.21458 34123 ft 344 kts 272°
2026-05-08 13:16 33.70554 -86.27121 34149 ft 339 kts 272°
2026-05-08 13:17 33.70987 -86.32745 34140 ft 338 kts 272°
2026-05-08 13:17 33.71425 -86.38361 34133 ft 338 kts 272°
2026-05-08 13:18 33.71854 -86.43978 34125 ft 337 kts 272°
2026-05-08 13:18 33.72270 -86.49551 34127 ft 337 kts 272°
2026-05-08 13:19 33.72695 -86.55164 34132 ft 337 kts 272°
2026-05-08 13:19 33.73119 -86.60774 34135 ft 337 kts 272°
2026-05-08 13:20 33.73538 -86.66378 34135 ft 337 kts 272°
2026-05-08 13:20 33.73957 -86.71990 34131 ft 337 kts 272°
2026-05-08 13:21 33.74372 -86.77601 34135 ft 337 kts 272°
2026-05-08 13:21 33.74779 -86.83222 34132 ft 338 kts 272°
2026-05-08 13:22 33.75186 -86.88843 34132 ft 338 kts 272°
2026-05-08 13:22 33.75588 -86.94475 34119 ft 338 kts 272°
2026-05-08 13:23 33.75992 -87.00100 34117 ft 338 kts 272°
2026-05-08 13:23 33.76398 -87.05725 34121 ft 338 kts 272°
2026-05-08 13:24 33.76799 -87.11353 34133 ft 338 kts 272°
2026-05-08 13:24 33.77196 -87.16979 34127 ft 338 kts 272°
2026-05-08 13:25 33.77592 -87.22605 34147 ft 338 kts 272°
2026-05-08 13:25 33.77981 -87.28231 34147 ft 338 kts 271°
2026-05-08 13:26 33.78368 -87.33816 34149 ft 338 kts 271°
2026-05-08 13:26 33.78755 -87.39439 34139 ft 337 kts 271°
2026-05-08 13:27 33.79141 -87.45057 34128 ft 337 kts 271°
2026-05-08 13:27 33.79879 -87.50642 34122 ft 341 kts 278°
2026-05-08 13:28 33.81038 -87.56171 34114 ft 341 kts 278°
2026-05-08 13:28 33.82190 -87.61707 34104 ft 341 kts 278°
2026-05-08 13:29 33.83333 -87.67249 34089 ft 342 kts 278°
2026-05-08 13:29 33.84487 -87.72798 34074 ft 342 kts 278°
2026-05-08 13:30 33.85634 -87.78350 34075 ft 342 kts 278°
2026-05-08 13:30 33.86783 -87.83910 34080 ft 343 kts 278°
2026-05-08 13:31 33.87933 -87.89471 34079 ft 343 kts 278°
2026-05-08 13:31 33.89074 -87.95043 34078 ft 343 kts 278°
2026-05-08 13:32 33.90212 -88.00609 34079 ft 342 kts 278°
2026-05-08 13:32 33.91349 -88.06172 34078 ft 342 kts 278°
2026-05-08 13:33 33.92482 -88.11730 34085 ft 342 kts 278°
2026-05-08 13:33 33.93617 -88.17293 34082 ft 342 kts 278°
2026-05-08 13:34 33.94745 -88.22861 34091 ft 342 kts 278°
2026-05-08 13:34 33.95871 -88.28430 34090 ft 342 kts 278°
2026-05-08 13:35 33.96994 -88.33997 34093 ft 342 kts 278°
2026-05-08 13:35 33.98109 -88.39558 34101 ft 341 kts 278°
2026-05-08 13:36 33.99224 -88.45118 34091 ft 341 kts 278°
2026-05-08 13:36 34.00330 -88.50636 34102 ft 341 kts 278°
2026-05-08 13:37 34.01447 -88.56196 34109 ft 341 kts 278°
2026-05-08 13:37 34.02554 -88.61757 34117 ft 341 kts 278°
2026-05-08 13:38 34.03657 -88.67310 34124 ft 341 kts 278°
2026-05-08 13:38 34.04760 -88.72864 34126 ft 341 kts 278°
2026-05-08 13:39 34.05855 -88.78421 34128 ft 340 kts 277°
2026-05-08 13:39 34.06946 -88.83975 34131 ft 340 kts 277°
2026-05-08 13:40 34.08043 -88.89531 34130 ft 340 kts 277°
2026-05-08 13:40 34.09138 -88.95086 34124 ft 340 kts 277°
2026-05-08 13:41 34.10230 -89.00643 34125 ft 340 kts 277°
2026-05-08 13:41 34.11315 -89.06203 34121 ft 340 kts 277°
2026-05-08 13:42 34.12394 -89.11762 34117 ft 340 kts 277°
2026-05-08 13:42 34.13473 -89.17321 34112 ft 340 kts 277°
2026-05-08 13:43 34.14556 -89.22881 34112 ft 340 kts 277°
2026-05-08 13:43 34.15642 -89.28444 34117 ft 340 kts 277°
2026-05-08 13:44 34.16712 -89.34006 34123 ft 340 kts 277°
2026-05-08 13:44 34.17776 -89.39572 34125 ft 340 kts 277°
2026-05-08 13:45 34.18846 -89.45142 34131 ft 340 kts 277°
2026-05-08 13:45 34.19911 -89.50716 34131 ft 341 kts 277°
2026-05-08 13:46 34.21080 -89.56273 34135 ft 343 kts 279°
2026-05-08 13:46 34.22456 -89.61795 34133 ft 343 kts 280°
2026-05-08 13:47 34.23841 -89.67317 34134 ft 343 kts 279°
2026-05-08 13:47 34.25193 -89.72848 34121 ft 343 kts 279°
2026-05-08 13:48 34.26531 -89.78386 34119 ft 343 kts 279°
2026-05-08 13:48 34.27866 -89.83931 34129 ft 343 kts 279°
2026-05-08 13:49 34.29192 -89.89477 34126 ft 344 kts 279°
2026-05-08 13:49 34.30524 -89.95029 34126 ft 344 kts 279°
2026-05-08 13:50 34.31850 -90.00546 34126 ft 344 kts 279°
2026-05-08 13:50 34.33183 -90.06105 34123 ft 344 kts 279°
2026-05-08 13:51 34.34510 -90.11666 34117 ft 344 kts 279°
2026-05-08 13:51 34.35834 -90.17229 34113 ft 344 kts 279°
2026-05-08 13:52 34.37130 -90.22793 34113 ft 342 kts 277°
2026-05-08 13:52 34.38113 -90.28409 34119 ft 340 kts 275°
2026-05-08 13:53 34.38960 -90.34037 34120 ft 340 kts 274°
2026-05-08 13:53 34.39833 -90.39663 34123 ft 340 kts 275°
2026-05-08 13:54 34.40739 -90.45285 34123 ft 340 kts 275°
2026-05-08 13:54 34.41657 -90.50904 34124 ft 340 kts 275°
2026-05-08 13:55 34.42568 -90.56528 34120 ft 340 kts 275°
2026-05-08 13:56 34.43918 -90.64964 34113 ft 340 kts 275°
2026-05-08 13:56 34.44814 -90.70588 34113 ft 340 kts 275°
2026-05-08 13:57 34.45708 -90.76216 34107 ft 340 kts 275°
2026-05-08 13:57 34.46605 -90.81844 34105 ft 340 kts 275°
2026-05-08 13:58 34.47497 -90.87479 34101 ft 340 kts 274°
2026-05-08 13:58 34.48385 -90.93118 34108 ft 341 kts 274°
2026-05-08 13:59 34.49274 -90.98759 34107 ft 341 kts 274°
2026-05-08 13:59 34.50156 -91.04400 34113 ft 340 kts 274°
2026-05-08 14:00 34.51040 -91.10034 34115 ft 340 kts 274°
2026-05-08 14:00 34.51920 -91.15670 34111 ft 340 kts 274°
2026-05-08 14:01 34.52790 -91.21264 34119 ft 340 kts 274°
2026-05-08 14:01 34.53667 -91.26928 34118 ft 339 kts 274°
2026-05-08 14:02 34.54528 -91.32517 34122 ft 339 kts 274°
2026-05-08 14:02 34.55397 -91.38133 34116 ft 338 kts 274°
2026-05-08 14:03 34.56259 -91.43743 34114 ft 338 kts 274°
2026-05-08 14:03 34.56979 -91.48438 34119 ft 338 kts 274°
2026-05-08 14:04 34.57970 -91.54955 34112 ft 338 kts 274°
2026-05-08 14:04 34.58822 -91.60562 34109 ft 338 kts 274°
2026-05-08 14:05 34.59533 -91.65259 34111 ft 338 kts 274°
2026-05-08 14:05 34.60382 -91.70865 34106 ft 338 kts 274°
2026-05-08 14:06 34.61225 -91.76474 34102 ft 338 kts 274°
2026-05-08 14:06 34.62069 -91.82089 34108 ft 338 kts 274°
2026-05-08 14:07 34.62906 -91.87670 34106 ft 338 kts 274°
2026-05-08 14:07 34.63746 -91.93293 34089 ft 338 kts 274°
2026-05-08 14:08 34.64579 -91.98912 34090 ft 338 kts 274°
2026-05-08 14:08 34.65410 -92.04532 34089 ft 338 kts 273°
2026-05-08 14:09 34.66239 -92.10158 34086 ft 338 kts 273°
2026-05-08 14:09 34.67061 -92.15789 34082 ft 339 kts 273°
2026-05-08 14:10 34.67891 -92.21422 34076 ft 339 kts 273°
2026-05-08 14:10 34.68723 -92.27063 34075 ft 339 kts 273°
2026-05-08 14:11 34.69548 -92.32714 34080 ft 340 kts 273°
2026-05-08 14:11 34.70371 -92.38368 34079 ft 340 kts 273°
2026-05-08 14:12 34.71197 -92.44029 34079 ft 340 kts 273°
2026-05-08 14:12 34.72013 -92.49703 34076 ft 341 kts 273°
2026-05-08 14:13 34.72831 -92.55381 34078 ft 341 kts 273°
2026-05-08 14:13 34.73651 -92.61066 34074 ft 342 kts 273°
2026-05-08 14:14 34.74467 -92.66758 34068 ft 342 kts 273°
2026-05-08 14:14 34.75279 -92.72453 34065 ft 342 kts 273°
2026-05-08 14:15 34.76087 -92.78115 34064 ft 342 kts 273°
2026-05-08 14:15 34.76897 -92.83825 34056 ft 343 kts 273°
2026-05-08 14:16 34.77700 -92.89540 34060 ft 343 kts 273°
2026-05-08 14:16 34.78507 -92.95255 34056 ft 343 kts 273°
2026-05-08 14:17 34.79306 -93.00972 34058 ft 343 kts 273°
2026-05-08 14:17 34.80102 -93.06698 34052 ft 343 kts 273°
2026-05-08 14:18 34.80904 -93.12425 34048 ft 343 kts 273°
2026-05-08 14:18 34.81699 -93.18159 34045 ft 344 kts 273°
2026-05-08 14:19 34.82492 -93.23901 34037 ft 344 kts 272°
2026-05-08 14:19 34.83279 -93.29636 34040 ft 344 kts 272°
2026-05-08 14:20 34.84070 -93.35380 34038 ft 344 kts 272°
2026-05-08 14:20 34.84865 -93.41125 34033 ft 344 kts 272°
2026-05-08 14:21 34.85649 -93.46872 34031 ft 344 kts 272°
2026-05-08 14:21 34.86426 -93.52620 34025 ft 344 kts 272°
2026-05-08 14:22 34.87196 -93.58330 34024 ft 344 kts 272°
2026-05-08 14:22 34.87972 -93.64088 34029 ft 345 kts 272°
2026-05-08 14:23 34.88748 -93.69850 34030 ft 345 kts 272°
2026-05-08 14:23 34.89524 -93.75619 34022 ft 346 kts 272°
2026-05-08 14:24 34.90298 -93.81405 34017 ft 346 kts 272°
2026-05-08 14:24 34.91066 -93.87197 34033 ft 347 kts 272°
2026-05-08 14:25 34.91833 -93.92998 34024 ft 347 kts 272°
2026-05-08 14:25 34.92591 -93.98811 34030 ft 348 kts 272°
2026-05-08 14:26 34.93355 -94.04630 34028 ft 348 kts 272°
2026-05-08 14:26 34.94120 -94.10462 34019 ft 349 kts 272°
2026-05-08 14:27 34.94884 -94.16305 34019 ft 349 kts 272°
2026-05-08 14:27 34.95649 -94.22154 34027 ft 350 kts 272°
2026-05-08 14:28 34.96407 -94.28018 34037 ft 350 kts 272°
2026-05-08 14:28 34.97159 -94.33885 34039 ft 351 kts 272°
2026-05-08 14:29 34.97910 -94.39725 34036 ft 351 kts 272°
2026-05-08 14:29 34.98669 -94.45616 34054 ft 352 kts 272°
2026-05-08 14:30 34.99423 -94.51521 34048 ft 353 kts 272°
2026-05-08 14:30 35.00170 -94.57436 34048 ft 353 kts 272°
2026-05-08 14:31 35.00918 -94.63361 34049 ft 354 kts 272°
2026-05-08 14:31 35.01667 -94.69290 34047 ft 354 kts 272°
2026-05-08 14:32 35.02890 -94.78204 34045 ft 356 kts 273°
2026-05-08 14:32 35.03715 -94.84161 34032 ft 357 kts 273°
2026-05-08 14:33 35.04532 -94.90138 34024 ft 357 kts 273°
2026-05-08 14:33 35.05340 -94.96157 33781 ft 366 kts 273°
2026-05-08 14:34 35.05753 -94.99243 33406 ft 370 kts 274°
2026-05-08 14:34 35.06169 -95.02342 33037 ft 370 kts 274°
2026-05-08 14:34 35.06587 -95.05445 32688 ft 370 kts 274°
2026-05-08 14:34 35.07004 -95.08541 32329 ft 370 kts 274°
2026-05-08 14:35 35.07420 -95.11632 31975 ft 368 kts 274°
2026-05-08 14:35 35.07833 -95.14715 31630 ft 368 kts 274°
2026-05-08 14:35 35.08243 -95.17793 31285 ft 367 kts 274°
2026-05-08 14:35 35.08651 -95.20863 30945 ft 366 kts 274°
2026-05-08 14:36 35.09055 -95.23929 30609 ft 365 kts 274°
2026-05-08 14:36 35.09459 -95.26983 30279 ft 364 kts 275°
2026-05-08 14:36 35.09865 -95.30033 29920 ft 363 kts 275°
2026-05-08 14:36 35.10266 -95.33075 29535 ft 362 kts 275°
2026-05-08 14:37 35.10659 -95.36065 29150 ft 361 kts 275°
2026-05-08 14:37 35.11056 -95.39085 28778 ft 359 kts 275°
2026-05-08 14:37 35.11449 -95.42091 28405 ft 358 kts 275°
2026-05-08 14:37 35.11841 -95.45087 28030 ft 356 kts 275°
2026-05-08 14:38 35.12227 -95.48070 27667 ft 355 kts 275°
2026-05-08 14:38 35.12593 -95.51048 27314 ft 354 kts 275°
2026-05-08 14:38 35.12947 -95.54015 26958 ft 353 kts 275°
2026-05-08 14:38 35.13295 -95.56979 26607 ft 352 kts 275°
2026-05-08 14:39 35.13639 -95.59931 26293 ft 351 kts 275°
2026-05-08 14:39 35.13983 -95.62879 25999 ft 350 kts 275°
2026-05-08 14:39 35.14328 -95.65822 25710 ft 350 kts 275°
2026-05-08 14:39 35.14679 -95.68759 25425 ft 349 kts 275°
2026-05-08 14:40 35.15028 -95.71691 25139 ft 348 kts 275°
2026-05-08 14:40 35.15370 -95.74618 24855 ft 348 kts 275°
2026-05-08 14:40 35.15709 -95.77544 24576 ft 347 kts 276°
2026-05-08 14:40 35.16046 -95.80461 24303 ft 347 kts 276°
2026-05-08 14:41 35.16385 -95.83375 24026 ft 346 kts 276°
2026-05-08 14:41 35.16723 -95.86271 23754 ft 346 kts 276°
2026-05-08 14:41 35.17064 -95.89189 23460 ft 345 kts 276°
2026-05-08 14:41 35.17403 -95.92086 23125 ft 344 kts 276°
2026-05-08 14:42 35.17740 -95.94978 22803 ft 343 kts 276°
2026-05-08 14:42 35.18073 -95.97858 22482 ft 342 kts 276°
2026-05-08 14:42 35.18406 -96.00727 22149 ft 340 kts 276°
2026-05-08 14:42 35.18739 -96.03585 21808 ft 339 kts 276°
2026-05-08 14:43 35.19069 -96.06435 21473 ft 338 kts 276°
2026-05-08 14:43 35.19394 -96.09275 21146 ft 336 kts 276°
2026-05-08 14:43 35.19713 -96.12061 20827 ft 335 kts 276°
2026-05-08 14:43 35.20038 -96.14876 20502 ft 334 kts 276°
2026-05-08 14:44 35.20360 -96.17685 20177 ft 333 kts 276°
2026-05-08 14:44 35.20679 -96.20480 19868 ft 331 kts 276°
2026-05-08 14:44 35.20992 -96.23268 19558 ft 330 kts 276°
2026-05-08 14:44 35.21280 -96.26047 19251 ft 329 kts 276°
2026-05-08 14:45 35.21552 -96.28822 18946 ft 328 kts 275°
2026-05-08 14:45 35.21817 -96.31587 18642 ft 327 kts 275°
2026-05-08 14:45 35.22083 -96.34344 18346 ft 326 kts 275°
2026-05-08 14:45 35.22351 -96.37089 18011 ft 325 kts 276°
2026-05-08 14:46 35.22621 -96.39829 17668 ft 324 kts 276°
2026-05-08 14:46 35.22890 -96.42563 17332 ft 324 kts 276°
2026-05-08 14:46 35.23158 -96.45293 16998 ft 323 kts 276°
2026-05-08 14:46 35.23426 -96.48022 16668 ft 323 kts 276°
2026-05-08 14:47 35.23694 -96.50744 16342 ft 322 kts 276°
2026-05-08 14:47 35.23961 -96.53463 16015 ft 322 kts 276°
2026-05-08 14:47 35.24225 -96.56181 15695 ft 322 kts 276°
2026-05-08 14:47 35.24487 -96.58896 15381 ft 321 kts 276°
2026-05-08 14:48 35.24748 -96.61609 15065 ft 321 kts 276°
2026-05-08 14:48 35.24985 -96.64321 14752 ft 319 kts 275°
2026-05-08 14:48 35.25144 -96.67007 14448 ft 314 kts 274°
2026-05-08 14:48 35.25258 -96.69653 14193 ft 308 kts 273°
2026-05-08 14:49 35.25356 -96.72247 13953 ft 303 kts 273°
2026-05-08 14:49 35.25453 -96.74796 13708 ft 298 kts 273°
2026-05-08 14:49 35.25554 -96.77306 13447 ft 293 kts 273°
2026-05-08 14:49 35.25659 -96.79787 13188 ft 291 kts 273°
2026-05-08 14:50 35.25767 -96.82254 12927 ft 290 kts 274°
2026-05-08 14:50 35.25879 -96.84713 12673 ft 289 kts 274°
2026-05-08 14:50 35.25989 -96.87165 12421 ft 288 kts 273°
2026-05-08 14:50 35.26152 -96.89609 12174 ft 303 kts 282°
2026-05-08 14:51 35.27009 -96.92031 11915 ft 312 kts 306°
2026-05-08 14:51 35.28404 -96.93986 11678 ft 306 kts 312°
2026-05-08 14:51 35.29864 -96.95848 11393 ft 301 kts 312°
2026-05-08 14:51 35.31312 -96.97673 11074 ft 297 kts 313°
2026-05-08 14:52 35.32746 -96.99479 10770 ft 294 kts 313°
2026-05-08 14:52 35.35567 -97.03020 10147 ft 287 kts 313°
2026-05-08 14:52 35.36951 -97.04757 9868 ft 283 kts 313°
2026-05-08 14:53 35.38321 -97.06473 9527 ft 281 kts 313°
2026-05-08 14:53 35.39684 -97.08177 9192 ft 279 kts 313°
2026-05-08 14:53 35.41040 -97.09866 8859 ft 278 kts 313°
2026-05-08 14:53 35.42395 -97.11545 8563 ft 276 kts 313°
2026-05-08 14:54 35.43748 -97.13217 8303 ft 276 kts 313°
2026-05-08 14:54 35.45100 -97.14884 8054 ft 275 kts 313°
2026-05-08 14:54 35.46449 -97.16548 7796 ft 275 kts 312°
2026-05-08 14:54 35.47345 -97.17646 7631 ft 275 kts 313°
2026-05-08 14:55 35.47913 -97.18341 7529 ft 274 kts 313°
2026-05-08 14:55 35.48805 -97.19433 7365 ft 273 kts 313°
2026-05-08 14:55 35.50156 -97.21075 7121 ft 273 kts 313°
2026-05-08 14:55 35.51513 -97.22714 6884 ft 274 kts 313°
2026-05-08 14:56 35.52870 -97.24349 6644 ft 273 kts 313°
2026-05-08 14:56 35.54226 -97.25980 6409 ft 273 kts 312°
2026-05-08 14:56 35.55305 -97.27848 6162 ft 267 kts 288°
2026-05-08 14:56 35.55663 -97.30059 6010 ft 265 kts 274°
2026-05-08 14:57 35.55836 -97.32312 5913 ft 267 kts 273°
2026-05-08 14:57 35.55998 -97.34570 5652 ft 265 kts 272°
2026-05-08 14:57 35.56166 -97.36820 5417 ft 264 kts 272°
2026-05-08 14:57 35.56338 -97.39065 5164 ft 265 kts 272°
2026-05-08 14:58 35.56523 -97.41308 4922 ft 261 kts 272°
2026-05-08 14:58 35.56718 -97.43494 4671 ft 254 kts 273°
2026-05-08 14:58 35.56910 -97.45625 4414 ft 248 kts 272°
2026-05-08 14:58 35.56978 -97.47690 4175 ft 236 kts 258°
2026-05-08 14:59 35.56449 -97.49526 3982 ft 224 kts 235°
2026-05-08 14:59 35.54438 -97.52246 3605 ft 208 kts 224°
2026-05-08 14:59 35.53453 -97.53495 3484 ft 199 kts 224°
2026-05-08 15:00 35.52505 -97.54695 3358 ft 192 kts 223°
2026-05-08 15:00 35.51598 -97.55848 3236 ft 184 kts 224°
2026-05-08 15:00 35.50717 -97.56964 3135 ft 177 kts 224°
2026-05-08 15:00 35.49888 -97.58001 3063 ft 162 kts 220°
2026-05-08 15:01 35.48990 -97.58667 2997 ft 144 kts 202°
2026-05-08 15:01 35.48025 -97.58908 2806 ft 139 kts 185°
2026-05-08 15:01 35.47074 -97.58903 2634 ft 134 kts 185°
2026-05-08 15:01 35.46166 -97.58900 2434 ft 131 kts 185°
2026-05-08 15:02 35.45247 -97.58899 2236 ft 132 kts 185°
2026-05-08 15:02 35.44333 -97.58898 2049 ft 131 kts 182°
2026-05-08 15:02 35.43425 -97.58896 1894 ft 131 kts 184°
2026-05-08 15:02 35.42518 -97.58896 1705 ft 130 kts 183°
2026-05-08 15:03 35.41614 -97.58898 1529 ft 130 kts 182°
2026-05-08 15:03 35.40708 -97.58897 1392 ft 130 kts 182°
2026-05-08 15:03 35.39818 -97.58897 1293 ft 119 kts 182°
2026-05-08 15:03 35.39225 -97.58895 1293 ft 46 kts 180°
2026-05-08 15:04 35.39033 -97.58901 1294 ft 16 kts 195°
2026-05-08 15:04 35.38976 -97.59000 1294 ft 16 kts 268°
2026-05-08 15:04 35.38976 -97.59142 1292 ft 18 kts 270°
2026-05-08 15:04 35.38977 -97.59308 1291 ft 20 kts 270°
2026-05-08 15:05 35.38977 -97.59431 1290 ft 14 kts 270°
2026-05-08 15:05 35.39024 -97.59530 1289 ft 15 kts 348°
2026-05-08 15:05 35.39126 -97.59533 1289 ft 13 kts
2026-05-08 15:05 35.39199 -97.59533 1293 ft 8 kts
2026-05-08 15:06 35.39248 -97.59533 1295 ft 9 kts 360°
2026-05-08 15:06 35.39302 -97.59533 1297 ft 7 kts
2026-05-08 15:06 35.39353 -97.59531 1298 ft 8 kts 13°
2026-05-08 15:06 35.39384 -97.59461 1298 ft 10 kts 89°
2026-05-08 15:07 35.39383 -97.59393 1297 ft 5 kts 90°
2026-05-08 15:07 35.39399 -97.59376 1297 ft 4 kts 359°
2026-05-08 15:07 35.39439 -97.59396 1297 ft 6 kts 335°
2026-05-08 15:07 35.39460 -97.59407 1297 ft 2 kts 335°
2026-05-08 15:08 35.39465 -97.59410 1297 ft 0 kts 335°